EHI
0 0 0 0 0 0 0 0 0 0 0 0 1 1 1 0 0 0 2 16 43 62 62 61 62 61 62 68 79 87 87 87 87 85 84 83 81 76 68 56 43 31 19 10 9 9 8 8 8
0 0 0 0 0 0 0 0 0 0 0 0 1 2 2 0 0 0 4 20 48 65 64 63 67 69 70 74 81 86 86 85 84 83 82 80 76 71 66 54 40 30 21 14 12 11 9 8 7
0 0 0 0 0 0 0 0 0 0 0 0 1 2 2 1 0 2 10 31 56 67 65 66 73 77 77 78 80 83 82 79 77 74 72 71 66 62 57 46 34 27 22 17 14 12 9 7 6
0 0 0 0 0 0 0 0 0 0 0 0 1 2 3 3 2 8 23 44 61 66 63 67 76 79 77 76 76 76 73 69 66 62 59 57 54 50 45 35 27 21 17 13 10 8 6 4 4
0 0 0 0 0 0 0 0 0 0 0 0 2 5 8 8 9 21 37 49 58 64 64 68 76 78 75 73 72 70 66 62 59 54 48 44 41 40 35 27 20 16 10 5 4 5 4 3 3
0 0 0 0 0 0 0 0 1 1 2 3 6 9 14 16 22 35 46 49 54 63 67 69 73 75 73 70 69 67 64 61 58 51 43 37 33 31 28 21 15 11 7 3 3 4 3 2 2
0 0 0 0 0 0 0 1 2 4 5 6 9 13 19 27 35 47 53 53 56 64 69 70 70 72 72 70 68 67 66 63 59 50 40 33 28 25 21 17 12 9 6 4 3 3 2 1 1
0 0 0 0 0 0 0 1 3 5 7 7 9 14 23 36 48 56 60 60 61 64 68 69 71 73 74 72 69 67 68 66 58 47 36 29 25 20 17 14 11 7 4 3 3 3 2 1 1
0 0 0 0 0 0 0 1 1 4 7 9 14 22 35 50 59 61 62 63 63 63 64 66 69 73 76 75 71 68 68 65 58 45 33 27 22 17 14 13 9 5 3 3 4 4 3 2 2
0 0 0 0 0 0 0 1 0 2 5 10 20 34 51 62 64 62 61 61 61 59 58 60 65 71 75 74 71 68 66 64 57 46 37 29 20 14 12 9 7 5 5 5 7 6 3 2 3
0 0 0 0 0 0 0 0 0 1 2 7 20 40 58 65 63 59 58 58 58 55 53 55 60 65 67 67 66 65 64 61 55 48 40 30 19 13 9 7 7 7 7 7 7 6 4 3 3
0 0 0 0 0 1 1 1 1 2 3 8 21 40 55 60 56 51 51 55 56 52 48 49 53 56 57 58 59 59 59 57 53 47 38 27 18 12 9 8 8 7 5 5 5 4 3 2 2
0 0 0 0 1 3 5 4 3 4 9 17 27 39 50 51 45 40 43 49 51 47 42 41 44 48 51 51 52 52 52 52 50 44 34 23 16 12 9 8 7 4 2 2 2 1 1 1 1
0 0 0 1 2 5 7 6 4 8 17 26 31 36 41 39 33 30 35 41 42 39 37 36 37 39 42 43 42 42 43 43 42 37 30 22 16 12 10 8 5 2 1 2 2 1 0 0 0
0 0 0 1 2 4 5 4 4 10 20 28 32 34 34 30 25 23 26 31 33 32 33 34 32 29 29 31 30 29 29 29 29 29 26 21 16 12 9 6 4 2 2 2 3 2 1 0 0
0 0 0 0 1 1 2 3 4 10 21 28 30 30 27 24 23 21 20 23 26 29 30 30 26 20 18 19 18 17 17 18 20 21 20 18 14 10 7 4 3 3 2 2 3 3 2 1 0
0 0 0 0 0 1 2 4 6 12 21 26 26 25 22 20 21 19 18 20 24 26 26 25 21 15 12 12 12 10 12 14 15 15 14 13 10 6 4 3 3 3 3 2 3 3 3 2 1
0 0 0 0 0 1 3 7 10 13 18 22 21 20 18 16 16 15 16 20 23 23 21 19 17 14 11 10 9 8 9 10 10 9 8 8 6 4 2 2 3 3 3 2 2 3 3 3 3
0 0 0 0 0 2 4 7 9 11 14 17 18 17 14 13 11 11 13 16 19 18 16 14 14 14 11 9 8 8 6 5 3 3 3 3 3 2 1 1 3 4 3 1 1 2 3 3 3
0 0 0 0 0 1 3 4 5 7 10 12 15 13 11 10 10 8 8 10 12 13 12 11 12 14 12 10 8 6 4 1 0 0 1 1 1 1 1 1 2 3 2 1 0 1 2 2 2
0 0 0 0 0 0 1 1 2 3 6 9 10 10 10 11 10 8 5 5 6 8 8 8 10 12 13 10 7 5 3 2 1 0 1 1 1 0 0 0 1 1 1 0 1 1 1 1 1
0 0 0 0 0 0 0 0 0 1 4 7 8 8 9 11 10 7 4 3 4 6 6 6 8 9 10 8 7 6 4 3 1 1 1 1 0 0 0 0 0 0 0 0 1 1 0 0 0
0 0 0 0 0 0 0 0 0 1 3 5 5 5 6 7 6 5 4 3 4 5 6 6 7 7 7 7 7 6 5 3 1 1 2 1 0 0 0 0 0 0 0 0 0 0 0 0 0
0 0 0 0 0 0 0 0 0 0 1 2 2 2 3 3 3 3 3 3 4 4 5 5 6 6 6 6 5 5 3 1 1 1 2 1 0 0 0 0 0 0 0 0 0 0 0 0 0
0 0 0 0 0 0 0 0 0 0 0 1 1 1 2 3 3 3 3 3 3 3 4 4 4 4 3 3 3 2 1 0 0 1 1 0 0 0 0 0 0 0 0 0 0 0 0 0 0
0 0 0 0 0 0 0 0 0 0 0 1 2 2 3 3 3 3 3 3 3 2 2 2 2 2 1 1 1 0 0 0 0 0 0 0 0 0 0 0 0 0 0 0 0 0 0 0 0
0 0 0 0 0 0 0 0 0 0 0 1 2 2 2 2 2 2 3 3 2 1 0 1 1 1 0 0 0 0 0 0 0 0 0 0 0 0 0 0 0 0 0 0 0 0 0 0 0
0 0 0 0 0 0 0 0 0 0 0 0 1 1 0 1 1 1 1 2 1 0 0 0 0 0 0 0 0 0 0 0 0 0 0 0 0 0 0 0 0 0 0 0 0 0 0 0 0
0 0 0 0 0 0 0 0 0 0 0 0 0 0 0 0 0 0 0 0 0 0 0 0 0 0 0 0 0 0 0 0 0 0 0 0 0 0 0 0 0 0 0 0 0 0 0 0 0
0 0 0 0 0 0 0 0 0 0 0 0 0 0 0 0 0 0 0 0 0 0 0 0 0 0 0 0 0 0 0 0 0 0 0 0 0 0 0 0 0 0 0 0 0 0 0 0 0
Wind_Speed
3 1 3 4 6 5 3 5 4 4 5 2 1 3 6 6 5 4 1 11 15 15 14 17 19 18 17 17 16 16 16 17 17 16 17 16 16 15 14 14 13 12 12 12 12 12 12 13 13
1 1 4 5 5 0 6 5 5 4 4 4 2 2 3 1 1 4 4 9 15 15 13 14 20 18 18 17 16 16 17 17 16 16 16 16 15 14 14 14 13 12 12 12 12 12 12 12 13
0 3 5 5 4 5 6 4 5 5 5 3 1 2 1 0 1 4 5 13 14 13 11 14 20 19 18 18 17 16 17 16 16 15 15 15 14 13 13 14 13 12 12 12 12 12 12 12 12
3 5 6 4 4 6 6 7 5 7 5 1 1 2 2 4 1 4 11 14 14 12 11 13 19 18 18 17 17 17 17 16 16 15 14 14 13 13 12 13 12 12 12 12 12 12 11 11 11
5 5 4 1 5 6 6 7 5 4 3 1 2 1 2 5 6 11 12 13 13 10 9 11 17 17 17 16 16 16 16 15 14 14 13 12 12 11 11 12 12 11 11 11 11 11 10 9 9
5 5 4 2 6 6 6 4 3 3 2 1 2 2 2 4 6 9 10 9 10 10 9 10 16 17 17 16 15 15 14 13 13 13 12 11 11 10 10 10 10 10 10 10 10 10 9 8 7
6 5 4 3 3 5 4 3 2 1 1 1 2 5 1 3 6 9 9 9 8 8 8 7 8 11 14 15 14 13 13 13 12 12 12 11 11 10 10 10 9 9 9 9 10 9 9 7 6
5 6 2 2 3 5 4 4 2 1 2 2 3 6 4 5 9 10 10 9 8 7 6 6 6 6 7 8 13 13 13 12 12 12 12 12 11 11 11 9 9 9 9 9 9 9 8 7 5
4 6 2 4 4 4 3 4 4 2 3 4 4 2 5 13 12 11 10 7 7 6 5 5 6 6 6 6 9 10 12 12 11 10 12 10 5 5 6 8 10 10 10 9 9 8 7 6 5
5 3 6 5 4 3 4 2 3 3 5 5 5 7 11 12 11 11 10 9 8 7 6 4 5 5 5 6 5 4 4 5 5 4 5 4 3 3 5 6 10 10 10 9 8 8 7 4 2
4 6 5 5 5 3 2 2 1 2 3 1 5 8 10 11 9 9 8 8 7 7 5 4 4 4 4 3 3 3 2 3 3 4 4 4 3 3 3 2 4 4 6 4 4 4 3 3 2
3 5 4 4 2 2 2 1 2 2 1 3 6 9 9 9 8 8 8 7 6 6 6 4 4 4 3 3 3 3 3 3 3 3 4 4 3 3 2 2 2 2 2 2 2 2 3 3 3
3 4 4 4 2 2 2 1 3 2 3 7 9 9 8 7 5 4 4 5 5 4 4 4 5 4 3 2 2 3 3 3 3 3 4 4 4 4 3 3 2 2 2 2 3 3 3 3 3
3 3 4 3 1 1 4 2 4 1 5 9 9 7 6 5 5 4 4 4 3 3 2 2 3 3 3 3 2 2 2 2 3 3 4 5 4 4 4 3 3 3 3 3 3 3 3 3 3
2 2 5 2 1 1 4 4 3 3 6 8 7 6 6 5 5 3 2 2 2 2 2 2 3 2 2 2 2 2 1 2 2 2 2 3 4 4 3 3 3 3 2 3 2 3 2 2 2
2 3 3 5 3 1 4 2 1 2 7 8 7 6 6 5 5 5 4 3 3 2 2 1 2 2 2 2 1 1 1 1 2 2 2 2 3 3 3 3 3 3 3 3 3 3 3 3 3
5 3 2 5 4 3 5 3 2 3 7 8 6 6 5 5 6 6 5 4 3 2 2 2 2 1 2 2 1 1 2 1 1 1 1 1 2 3 3 3 3 3 3 3 4 3 3 3 4
1 1 2 3 3 5 5 4 4 3 6 7 6 6 5 5 5 6 5 5 5 4 3 3 2 2 2 2 2 2 2 2 1 1 1 0 1 1 2 2 2 2 3 3 3 4 3 3 4
2 1 3 4 1 4 5 6 4 4 5 6 6 6 5 5 5 6 6 6 6 6 5 4 4 3 2 1 1 1 1 1 1 1 2 1 0 1 2 2 2 3 3 4 4 3 5 4 4
3 2 2 2 2 5 6 5 3 4 4 5 6 5 5 4 5 6 7 7 7 6 6 4 4 3 3 2 1 1 1 1 1 2 2 2 2 1 1 2 2 3 3 3 4 4 3 3 4
3 5 4 3 3 5 5 3 2 3 5 6 6 5 4 4 4 5 7 7 7 7 6 5 4 4 3 2 2 2 1 1 1 2 2 2 2 2 1 1 1 1 2 3 4 5 5 5 3
3 5 5 4 5 1 2 2 2 2 3 5 5 4 4 4 5 5 6 6 7 6 6 6 5 5 5 4 3 2 1 1 1 1 1 2 3 3 2 2 1 1 1 2 2 3 3 5 5
3 2 4 3 5 3 3 3 4 2 3 4 5 4 4 4 5 5 5 5 6 6 6 6 6 7 6 5 4 3 2 2 2 3 3 3 4 4 4 3 2 2 1 1 0 1 2 3 4
4 6 6 5 5 2 1 3 4 4 4 5 6 5 5 5 5 5 6 6 6 7 7 7 7 8 7 6 6 5 4 4 4 4 4 4 3 4 6 5 4 3 3 3 1 0 1 2 3
5 6 5 5 4 3 1 2 6 2 2 6 7 7 5 5 5 5 6 7 7 8 8 8 7 7 7 7 7 7 6 5 5 4 4 4 4 4 5 5 4 3 3 3 3 2 2 2 3
2 7 7 4 4 3 1 3 4 1 3 6 7 7 6 5 5 5 5 6 6 7 7 7 7 6 7 7 7 6 6 5 5 6 5 5 4 4 5 5 5 5 4 4 4 3 3 3 4
4 2 4 7 2 0 3 4 2 5 6 6 7 7 6 5 5 5 5 5 6 6 7 6 6 7 7 7 7 7 7 7 6 6 6 5 4 4 6 5 5 6 6 6 5 5 5 5 5
4 7 5 5 4 2 3 4 5 7 8 8 8 7 6 6 5 5 5 5 5 5 6 7 7 7 6 7 6 6 7 7 7 7 7 7 6 6 6 7 7 7 7 7 7 6 6 8 6
2 3 5 4 4 5 3 7 4 7 9 10 9 8 8 7 5 4 4 4 5 5 6 6 7 7 7 7 6 7 7 7 7 7 7 6 7 7 7 7 7 8 8 7 8 7 8 9 7
1 3 6 4 3 4 3 8 2 3 7 9 9 9 8 8 6 5 5 4 5 6 6 6 6 7 6 6 7 7 7 7 8 7 7 7 7 7 7 7 8 8 8 8 8 9 9 9 8
Wind_Direction
305 355 94 66 55 49 260 253 247 290 300 298 215 178 164 164 172 202 133 138 133 140 146 148 148 145 141 136 132 129 127 125 125 126 128 129 130 132 134 136 136 136 134 133 131 129 128 128 128
294 97 65 64 89 125 266 248 249 254 275 317 333 90 113 174 129 118 124 139 135 139 143 147 149 146 142 139 135 133 132 131 130 130 131 132 133 135 136 138 138 136 135 134 133 132 130 131 132
203 65 87 82 131 192 243 243 244 286 289 290 335 41 116 212 134 150 141 135 132 137 142 151 149 147 144 142 140 138 136 136 135 135 136 137 137 137 138 140 140 139 137 136 135 133 133 134 135
88 56 59 86 221 227 233 262 279 303 315 288 102 45 45 8 86 129 128 132 131 136 142 152 149 147 146 146 145 144 142 142 141 141 141 142 142 141 142 143 142 142 140 138 137 137 137 138 137
62 80 76 23 255 252 246 262 270 273 281 312 97 98 24 8 71 110 125 131 133 133 139 151 150 148 147 149 151 149 148 147 146 146 146 146 146 145 146 147 147 146 145 144 143 142 140 140 140
61 72 97 237 267 274 268 260 285 269 252 324 120 115 35 34 89 111 118 120 127 133 136 147 153 152 151 153 155 154 153 152 151 151 151 151 150 150 150 152 154 154 153 152 149 147 145 143 142
105 103 152 211 274 290 282 303 308 299 335 318 134 121 78 69 96 104 101 102 111 123 129 137 150 154 156 157 158 159 158 157 157 157 157 157 158 158 160 161 162 161 160 160 158 156 155 152 147
121 106 131 229 247 275 294 333 325 355 310 0 99 137 171 141 114 102 97 99 108 117 127 136 143 143 147 157 165 165 164 163 163 164 166 167 168 169 172 169 171 172 171 172 169 167 165 161 157
87 80 186 223 215 264 311 351 338 356 54 44 41 92 130 126 119 112 109 111 120 128 133 145 147 142 143 152 171 170 169 170 170 172 174 173 170 171 177 180 182 183 183 183 179 176 173 170 168
93 138 223 220 209 247 311 334 317 13 40 52 57 70 111 124 128 129 136 143 148 153 156 148 150 151 150 161 161 158 164 163 163 163 169 160 156 176 182 191 194 194 192 191 189 186 180 166 153
152 192 231 241 227 233 284 313 358 85 45 107 132 130 127 129 133 138 144 150 155 152 151 147 155 157 157 157 150 154 149 154 159 164 165 155 155 174 181 181 203 202 197 189 193 186 164 156 166
183 239 232 257 216 191 210 264 32 59 146 112 120 131 131 135 143 150 153 151 145 141 147 152 146 148 157 154 153 157 160 166 170 164 164 163 167 179 180 181 184 183 179 175 176 172 171 170 179
210 261 256 248 259 192 112 96 88 64 87 94 102 110 123 131 129 119 117 126 131 142 156 162 152 153 157 142 157 159 160 164 167 161 171 174 179 185 185 189 186 189 183 180 185 186 183 179 183
235 249 278 282 238 163 124 85 102 95 99 103 108 115 117 117 113 104 109 123 136 145 152 143 148 140 130 134 144 152 168 168 162 171 182 179 182 184 184 188 187 194 194 186 188 190 181 179 175
275 318 333 340 39 154 113 49 75 129 110 106 105 102 91 76 71 78 90 112 136 140 138 146 152 128 130 138 141 140 162 169 166 173 182 189 187 188 189 190 194 198 188 179 181 187 174 176 170
30 37 352 321 12 18 104 105 55 103 112 109 108 102 90 70 55 44 40 35 43 84 102 106 140 131 138 128 129 140 126 140 163 167 170 194 202 200 193 192 199 195 186 188 193 184 177 170 153
30 33 328 323 7 48 88 128 71 101 110 112 112 104 91 70 45 31 33 37 43 67 80 75 60 115 150 125 107 91 108 107 115 133 137 192 205 199 194 202 196 185 199 199 199 185 172 163 149
298 341 320 309 343 57 85 107 80 86 108 112 106 93 80 66 37 24 26 33 41 47 57 59 42 27 40 76 69 68 79 88 94 104 109 150 202 188 200 208 196 192 204 202 190 177 165 157 148
182 218 277 279 262 82 97 99 78 86 94 98 95 89 78 58 37 31 24 30 40 39 39 34 30 18 29 54 59 68 64 48 71 80 65 76 139 178 208 211 192 198 207 206 188 170 160 156 142
195 235 263 328 74 108 106 83 73 86 103 113 111 101 88 61 36 31 30 32 35 35 32 33 27 22 23 17 19 70 64 44 50 55 53 56 60 105 162 159 198 193 193 195 191 171 164 165 168
216 198 202 177 74 76 106 60 50 79 94 100 98 96 88 79 54 30 26 25 23 25 24 25 21 31 29 29 46 62 68 48 36 36 29 47 72 60 57 112 176 176 173 192 195 185 177 175 178
250 217 178 151 119 117 125 153 247 145 123 120 114 106 91 73 62 43 32 25 21 18 19 24 27 32 25 33 52 55 69 69 38 36 38 37 50 50 46 47 71 142 159 177 194 188 195 174 172
203 88 112 112 120 89 48 125 259 166 178 167 149 133 111 83 66 50 38 29 25 23 24 21 30 36 26 27 37 49 56 62 53 53 53 45 40 43 45 48 47 43 45 59 135 190 187 177 171
126 74 62 54 73 80 252 153 246 215 198 175 160 143 119 92 69 50 36 31 28 26 28 27 35 36 29 31 33 37 46 60 62 54 45 38 37 39 38 43 38 39 46 50 42 56 146 149 146
81 87 39 8 19 249 269 181 242 228 188 175 164 144 119 98 79 57 40 32 29 27 27 27 36 39 33 36 39 39 44 53 61 55 49 46 39 36 32 40 36 39 44 49 54 54 62 104 118
147 134 152 192 215 262 310 234 253 117 108 119 128 128 119 101 81 65 50 38 33 31 30 30 34 38 36 38 39 41 45 52 53 53 54 50 42 36 35 43 44 47 52 55 60 63 65 82 92
124 115 150 128 131 186 276 275 287 131 127 126 130 130 123 108 91 75 57 44 39 32 28 30 41 42 41 41 44 47 46 51 53 52 52 51 43 44 41 47 54 53 53 54 60 65 64 70 74
110 138 96 112 145 240 280 260 236 195 182 167 159 152 135 116 97 81 64 50 43 38 34 36 43 47 45 47 51 57 52 51 52 54 52 49 46 46 47 47 51 56 56 58 63 66 67 71 64
77 82 95 105 147 158 244 265 224 199 181 174 166 153 142 127 113 96 75 57 50 46 44 44 44 47 48 50 53 57 53 52 54 55 51 50 49 48 49 50 53 57 57 57 63 63 66 71 67
152 155 146 147 206 174 187 264 307 176 161 154 148 143 135 126 119 107 91 71 57 51 47 47 47 49 48 53 58 57 56 56 56 53 49 51 53 50 51 53 56 57 58 59 65 67 63 66 65